User: anonymous
Location: Fremont
(37.5480°N, 121.9880°W)
Time: 04:38:33
(UTC-07:00)
Language:

Cosmos 1844 Rocket - Orbit

View from above orbital plane
View from above orbital plane
View from above satellite
View from above satellite

Ground track
Ground track

The orbit data is extracted from the following two-line orbital elements,

1 17974U 87041B   14244.49109382  .00000194  00000-0  11992-3 0  1901
2 17974 071.0065 258.0928 0012718 158.8273 353.1453 14.17108006412218
Epoch (UTC): 01 September 2014 11:47:10
Eccentricity: 0.0012718
inclination: 71.0065°
perigee height: 826 km
apogee height: 844 km
right ascension of ascending node: 258.0928°
argument of perigee: 158.8273°
revolutions per day: 14.17108006
mean anomaly at epoch: 353.1453°
orbit number at epoch: 41221

The dashed part of the orbit path shows where the satellite is in the earth's shadow,  

DLR